This is the latest recevied weather packets stored in our database for station/object W2OBX. If no packets are shown the sender has not sent any weather packets the latest 1 day(s).
| Time | Temp. | Humidity | Pressure | Rain* | Wind** | Luminosity | Snow |
|---|---|---|---|---|---|---|---|
| 1778024969 | 21.11° C | 60% | 1011.4 hPa | 0 mm | 0 m/s | 6 W/m² | - |
| 1778024667 | 21.11° C | 62% | 1011.4 hPa | 0 mm | 0 m/s | 4 W/m² | - |
| 1778024363 | 21.11° C | 63% | 1011.3 hPa | 0 mm | 0 m/s | 4 W/m² | - |
| 1778024061 | 21.67° C | 58% | 1011.2 hPa | 0 mm | 0 m/s | 4 W/m² | - |
| 1778023759 | 21.67° C | 58% | 1011.3 hPa | 0 mm | 0 m/s | 4 W/m² | - |
| 1778023457 | 21.67° C | 60% | 1011.4 hPa | 0 mm | 0 m/s | 8 W/m² | - |
| 1778023153 | 21.67° C | 60% | 1011.6 hPa | 0 mm | 0 m/s | 13 W/m² | - |
| 1778022851 | 21.67° C | 60% | 1011.7 hPa | 0 mm | 0 m/s | 13 W/m² | - |
| 1778022549 | 21.67° C | 61% | 1011.9 hPa | 0 mm | 0 m/s | 16 W/m² | - |
| 1778022246 | 21.67° C | 61% | 1011.9 hPa | 0 mm | 0 m/s | 23 W/m² | - |
| 1778021942 | 22.22° C | 59% | 1011.7 hPa | 0 mm | 0 m/s | 22 W/m² | - |
| 1778021640 | 22.22° C | 58% | 1011.8 hPa | 0 mm | 0 m/s | 22 W/m² | - |
| 1778021334 | 22.22° C | 58% | 1011.7 hPa | 0 mm | 0 m/s | 24 W/m² | - |
| 1778021032 | 22.22° C | 59% | 1011.7 hPa | 0 mm | 0 m/s | 28 W/m² | - |
| 1778020729 | 22.78° C | 60% | 1011.6 hPa | 0 mm | 0 m/s | 30 W/m² | - |
| 1778020426 | 22.78° C | 58% | 1011.7 hPa | 0 mm | 0 m/s | 34 W/m² | - |
| 1778020122 | 22.78° C | 57% | 1011.7 hPa | 0 mm | 0 m/s | 36 W/m² | - |
| 1778019818 | 22.78° C | 57% | 1011.8 hPa | 0 mm | 0 m/s | 36 W/m² | - |
| 1778019515 | 22.78° C | 54% | 1012.1 hPa | 0 mm | 0 m/s | 35 W/m² | - |
| 1778019212 | 22.78° C | 55% | 1011.8 hPa | 0 mm | 0 m/s | 37 W/m² | - |
| 1778018909 | 23.33° C | 54% | 1011.8 hPa | 0 mm | 0 m/s | 40 W/m² | - |
| 1778018606 | 23.33° C | 53% | 1011.9 hPa | 0 mm | 0 m/s | 43 W/m² | - |
| 1778018304 | 23.33° C | 54% | 1012 hPa | 0 mm | 0 m/s | 54 W/m² | - |
| 1778018002 | 23.33° C | 54% | 1012 hPa | 0 mm | 0 m/s | 40 W/m² | - |
| 1778017700 | 23.33° C | 51% | 1011.9 hPa | 0 mm | 0 m/s | 47 W/m² | - |
* Rain latest hour (hover to see other rain measurements)
** Current wind speed in m/s (hover to see current wind gust speed)